Location: Newark
(25.4800°N, 85.7200°E)
Time: 05:48:12
(UTC+00:00)

SR - Visible Passes

Search period start: 22 August 2019 00:00
Search period end: 01 September 2019 00:00
Orbit: 578 x 878 km, 66.7° (Epoch: 20 August)

Date Brightness Start Highest point End Pass type
(mag) Time Alt. Az. Time Alt. Az. Time Alt. Az.
22 Aug ? 15:21:08 10° N 15:22:30 15° NNE 15:22:30 15° NNE visible
23 Aug ? 16:12:17 10° NNW 16:13:40 18° NNW 16:13:40 18° NNW visible
24 Aug ? 15:22:59 10° N 15:25:28 25° N 15:25:28 25° N visible
25 Aug ? 14:34:23 10° NNE 14:37:20 19° NE 14:37:20 19° NE visible
25 Aug ? 16:15:16 10° NW 16:16:45 18° NW 16:16:45 18° NW visible
26 Aug ? 15:25:25 10° NNW 15:28:40 36° NNW 15:28:40 36° NNW visible
27 Aug ? 14:36:09 10° N 14:40:40 37° NE 14:40:40 37° NE visible
27 Aug ? 16:18:58 10° WNW 16:20:06 14° WNW 16:20:06 14° WNW visible
28 Aug ? 13:47:39 10° NNE 13:51:40 19° ENE 13:52:44 18° ENE visible
28 Aug ? 15:28:21 10° NW 15:32:10 37° WNW 15:32:10 37° WNW visible
29 Aug ? 14:38:33 10° NNW 14:44:20 79° ENE 14:44:20 79° ENE visible
30 Aug ? 13:49:20 10° N 13:54:39 37° ENE 13:56:36 29° ESE visible
30 Aug ? 15:31:57 10° NW 15:36:03 24° W 15:36:03 24° W visible
31 Aug ? 13:00:55 10° NNE 13:04:46 18° ENE 13:08:41 10° E visible
31 Aug ? 14:41:26 10° NW 14:47:03 52° WSW 14:48:26 43° SSW visible
